Location: Poughquag
(41.6090°N, 73.6820°W)
Time: 12:43:48
(UTC-04:00)

Transit 2A Rocket - Pass Details

Date: 29 May 2020
Orbit: 584 x 919 km, 66.7° (Epoch: 06 July)

Event Time Altitude Azimuth Distance (km) Brightness Sun altitude
Rises 08:13:33 0° 331° (NNW) 3,505 8.2 29.2°
Reaches altitude 10° 08:16:03 10° 334° (NNW) 2,587 7.6 29.6°
Maximum altitude 08:22:08 71° 58° (ENE) 968 6.4 30.8°
Drops below altitude 10° 08:28:13 10° 143° (SE) 2,591 8.3 31.9°
Sets 08:30:43 0° 145° (SE) 3,509 8.8 32.4°
